Wind_Speed
7 7 5 6 6 6 6 7 3 3 2 3 3 4 7 7 7 6 3 11 19 24 24 31 31 31 28 24 25 25 25 23 22 21 20 20 20 18 15 13 12 13 13 13 13 12 12 12 13
7 5 5 3 6 6 7 2 3 3 3 2 3 7 7 6 3 1 4 14 21 24 23 24 30 30 30 28 26 25 24 24 23 22 21 21 21 19 18 17 16 15 14 13 13 13 13 13 13
5 4 4 3 1 6 4 3 6 4 6 6 3 4 6 4 2 3 3 20 25 25 24 24 31 30 30 30 29 28 28 26 23 22 21 21 21 20 19 17 16 16 15 15 14 14 13 13 13
5 5 4 4 8 8 7 6 4 5 3 5 5 7 2 2 2 1 11 21 27 27 25 25 31 30 30 29 29 29 29 28 26 24 23 22 21 20 20 18 17 16 16 15 15 15 14 14 13
4 3 3 3 8 8 9 11 7 4 4 5 6 10 4 4 3 6 17 20 26 27 27 27 33 31 30 30 29 29 29 28 27 26 25 23 22 21 21 20 19 18 17 16 15 15 15 14 13
4 3 4 5 6 5 7 12 6 6 3 6 7 12 3 4 8 9 15 18 23 25 26 25 35 33 30 29 29 29 28 28 27 26 25 23 22 21 20 20 20 18 18 17 16 16 15 14 13
5 4 2 1 2 4 7 12 6 10 5 7 5 10 2 5 7 10 14 15 21 23 24 24 30 35 33 32 30 29 29 28 27 26 24 23 22 22 21 19 19 19 19 18 17 16 16 15 14
3 3 2 0 1 2 6 11 7 9 6 6 5 5 4 6 9 10 14 16 18 22 24 25 26 28 30 33 33 32 30 29 28 27 26 25 24 23 22 21 21 20 19 18 18 17 17 16 15
2 5 4 2 4 5 7 9 6 8 8 10 6 8 8 1 7 12 14 18 20 22 25 26 28 29 29 28 31 34 32 31 29 28 27 26 22 21 21 22 20 21 20 19 19 18 17 17 17
4 5 2 2 6 7 9 9 12 9 12 4 10 9 9 7 9 14 19 21 25 27 29 29 30 31 30 28 26 29 27 28 28 27 25 27 23 22 21 21 22 22 21 20 19 19 18 17 15
1 5 2 7 6 8 14 16 4 13 14 11 11 14 17 19 15 17 20 24 27 27 27 30 29 30 30 29 27 25 28 26 27 27 27 25 24 23 22 20 19 21 21 18 19 18 18 17 16
8 5 7 7 4 13 16 18 17 16 15 8 8 14 12 15 14 17 19 21 24 23 27 27 28 28 29 28 28 27 27 28 28 28 28 27 25 23 22 22 20 19 20 19 19 17 18 18 18
9 4 4 10 12 13 15 16 15 15 9 9 14 14 15 12 15 19 18 20 20 23 23 25 26 28 28 30 29 29 29 29 28 27 27 28 27 25 23 22 21 20 19 19 19 18 17 17 18
5 11 14 13 14 4 7 9 7 3 11 18 16 17 15 15 14 16 15 19 20 22 25 24 28 29 28 29 31 30 29 30 29 29 29 29 29 27 24 22 22 21 20 19 19 19 18 18 18
8 14 16 13 2 3 5 13 6 5 16 19 20 18 17 16 16 14 16 18 17 21 23 27 28 28 31 31 31 32 31 30 31 31 30 30 29 29 26 24 23 22 20 20 19 18 18 18 19
11 11 9 2 9 3 12 14 7 19 17 17 21 17 15 16 15 16 15 16 14 15 18 22 25 28 32 35 34 33 33 33 33 32 31 32 31 31 29 27 25 22 21 19 19 19 19 20 20
9 11 14 14 7 16 13 22 15 10 17 19 15 16 15 14 17 20 18 17 14 13 14 19 23 29 32 34 34 34 33 34 35 33 34 34 33 32 31 27 24 22 21 21 19 18 19 20 20
16 16 17 19 15 19 20 21 19 16 15 18 14 18 13 15 15 18 20 20 18 16 13 15 19 26 30 31 30 33 33 37 35 37 37 36 34 33 31 28 26 24 23 21 21 19 19 19 19
11 15 18 18 15 16 19 24 23 22 18 14 18 15 15 15 15 18 21 22 24 21 18 17 18 22 25 29 31 32 36 36 35 36 35 35 34 33 34 30 28 26 23 21 20 19 17 20 18
11 16 18 16 15 15 21 25 22 21 16 16 14 14 15 16 17 18 22 24 25 23 23 24 22 21 24 30 32 32 32 33 34 32 33 34 34 34 36 39 33 39 39 37 30 23 19 19 18
14 12 15 19 19 19 20 20 19 12 8 14 13 13 13 15 17 19 23 27 27 26 28 29 29 27 22 25 31 31 29 29 29 33 33 33 34 34 35 31 32 38 36 38 36 29 29 22 20
15 13 14 16 17 16 15 21 19 12 13 12 12 14 16 18 19 18 22 29 31 31 30 30 31 30 25 21 25 30 28 28 29 26 25 27 29 32 32 37 36 39 36 35 33 32 32 23 19
13 11 14 17 18 19 17 10 13 4 5 8 11 13 15 16 18 21 22 29 30 31 30 29 32 32 28 24 24 27 30 28 25 23 23 22 22 28 34 36 36 32 32 31 30 27 29 26 20
9 11 16 17 13 11 2 5 9 3 2 5 8 12 14 16 18 19 26 28 31 35 34 33 35 34 31 27 23 26 28 25 25 21 15 15 22 26 30 29 29 27 24 24 23 19 18 26 25
12 12 10 6 6 10 3 13 13 6 4 5 9 12 15 16 18 19 22 27 33 36 38 34 34 34 33 27 20 17 23 23 22 22 18 19 18 16 20 19 13 9 10 17 20 17 17 14 14
10 7 5 7 9 17 18 10 5 9 5 4 7 10 14 17 17 19 20 27 31 34 36 32 32 30 29 26 17 9 7 11 3 1 14 20 24 23 24 24 23 23 21 18 15 18 10 14 12
3 7 8 12 18 16 13 18 8 10 6 3 8 12 16 18 19 19 22 27 31 33 35 29 29 27 25 21 15 12 13 15 22 24 23 25 24 24 24 23 21 23 17 14 18 18 12 8 8
10 10 7 9 6 11 13 21 18 11 4 4 10 14 17 18 20 20 20 26 28 30 33 28 23 19 22 18 14 14 18 19 25 29 27 24 20 17 17 19 25 22 23 20 13 9 8 9 9
12 13 12 10 12 15 17 15 4 3 1 6 11 16 20 21 21 19 21 28 29 30 30 28 21 15 18 17 13 18 22 19 26 29 25 25 24 21 20 21 23 28 27 21 21 15 10 12 10
10 13 11 9 14 10 12 20 10 7 9 14 18 17 20 18 18 17 21 25 27 29 28 29 19 15 12 12 14 16 21 21 23 25 26 22 25 24 21 22 24 28 24 20 17 16 13 10 12
Wind_Direction
317 306 284 242 233 243 107 80 357 71 151 38 95 271 339 329 337 3 78 169 162 164 171 174 176 175 173 176 182 183 180 177 175 173 170 167 169 172 172 171 166 163 157 152 146 140 137 136 137
302 289 226 259 254 188 93 38 66 22 24 33 221 238 264 333 327 339 165 168 165 164 170 177 181 179 176 176 180 186 186 185 183 180 177 174 175 177 178 177 175 172 167 162 157 152 150 149 148
301 274 265 262 257 53 72 20 338 315 290 257 244 265 310 340 25 342 128 164 165 167 172 180 183 183 183 180 180 183 186 188 187 188 185 182 181 182 184 183 182 178 174 171 168 167 166 165 165
299 213 216 269 98 72 37 358 318 278 186 232 259 283 215 10 324 25 160 165 168 171 174 188 184 187 187 186 184 185 187 188 190 191 190 189 190 190 190 189 187 185 183 181 180 179 178 179 181
262 243 234 131 91 83 50 20 24 321 278 234 249 281 269 152 151 133 156 169 175 176 178 190 187 191 192 189 189 190 190 192 193 193 194 195 196 197 195 195 194 192 191 191 191 188 187 191 196
239 271 233 171 117 92 55 2 338 4 345 269 259 270 298 133 164 155 163 174 182 183 184 187 189 193 195 197 195 196 198 197 199 199 199 201 203 205 206 202 201 199 197 198 201 200 199 200 206
324 310 22 100 99 164 11 345 11 335 316 27 319 277 55 181 169 168 174 177 186 190 191 191 193 196 198 199 202 204 204 204 205 205 207 209 212 211 212 213 212 208 205 207 208 209 210 212 217
326 284 217 140 28 72 10 348 346 349 7 321 326 311 359 69 176 182 183 183 189 195 198 197 197 200 201 202 205 207 210 211 211 211 211 215 217 219 220 219 216 214 215 215 216 217 219 222 226
251 243 227 195 289 341 347 334 349 321 283 328 329 304 5 291 186 201 201 199 194 202 205 205 203 203 205 206 209 210 212 213 216 218 219 218 218 224 224 224 224 225 222 221 222 224 227 229 234
286 273 344 356 314 298 302 313 319 311 308 302 331 318 270 274 240 222 213 212 207 205 208 208 209 208 207 209 211 211 213 215 215 215 217 217 219 221 222 226 231 229 229 230 231 231 233 235 237
319 298 337 289 307 314 308 298 301 292 289 1 331 325 303 282 261 249 243 234 221 219 212 210 209 211 211 211 212 214 213 216 219 218 217 220 220 222 223 220 225 225 230 230 237 236 234 234 236
280 260 282 304 298 303 297 303 293 283 289 355 340 326 325 286 268 260 262 256 244 225 223 215 213 211 213 216 217 218 217 218 218 220 219 217 220 222 222 221 221 220 221 225 226 229 231 232 234
261 297 275 288 294 288 300 281 290 287 16 326 317 323 332 332 290 277 272 270 258 237 232 223 216 216 215 215 220 222 222 223 224 222 221 219 221 223 222 222 222 223 222 223 225 230 233 237 239
345 298 292 290 293 290 289 307 286 75 345 329 329 328 324 319 310 296 276 266 254 243 233 227 222 218 217 220 222 224 225 225 226 227 224 221 221 222 223 224 225 226 225 227 228 230 235 240 242
287 291 298 282 296 327 317 263 240 355 331 321 324 323 317 318 319 304 298 290 269 254 243 230 224 220 219 221 223 224 228 227 227 227 226 222 221 221 221 222 224 227 229 230 233 235 239 245 248
279 280 278 98 335 93 328 296 343 319 322 317 318 318 327 324 323 344 345 321 301 276 256 244 235 230 225 222 221 224 226 225 228 228 226 224 223 220 219 222 223 223 225 229 232 236 241 245 250
219 285 309 301 297 311 305 301 301 321 311 310 312 321 321 325 357 355 345 348 337 310 277 254 245 239 234 230 228 228 226 225 226 226 224 222 221 221 218 222 223 220 223 226 231 239 243 248 251
322 308 302 301 316 308 307 298 309 304 313 303 311 316 323 355 356 0 355 351 348 343 324 285 260 249 241 238 235 233 230 229 228 225 223 219 221 218 216 219 218 219 225 229 228 229 243 248 253
295 291 295 299 320 308 302 300 305 307 300 298 315 324 1 344 352 358 356 350 346 345 336 332 306 276 251 239 237 232 227 226 228 229 228 223 218 215 211 210 213 212 220 225 234 232 233 244 241
298 297 293 308 304 311 302 296 294 292 302 313 19 10 0 353 353 357 1 357 350 344 340 332 324 308 276 249 243 238 236 236 233 231 229 225 221 215 211 214 209 216 221 229 226 220 222 233 228
293 291 306 308 308 288 291 298 294 318 339 52 41 18 10 6 1 0 1 1 357 352 343 335 329 322 302 272 251 244 243 243 236 229 227 224 219 218 216 217 212 220 225 221 215 216 212 213 223
299 329 309 300 306 301 321 296 298 314 62 50 29 16 11 5 0 0 359 357 357 353 344 338 332 325 315 296 258 238 234 237 240 242 237 231 222 214 214 220 219 221 222 217 215 215 213 212 218
302 317 298 295 289 293 287 264 293 25 22 21 18 18 12 10 5 2 358 354 354 350 348 342 338 330 323 306 280 239 236 238 248 246 240 227 213 209 221 220 217 218 218 220 213 199 205 211 214
319 293 293 280 270 271 343 288 301 346 22 47 28 27 15 9 5 360 358 356 355 355 349 346 343 335 333 321 296 254 236 235 245 244 231 211 202 218 222 223 220 218 222 231 217 209 210 223 214
336 318 307 276 234 274 250 296 271 135 120 45 20 14 10 8 4 356 356 357 357 352 348 346 342 335 340 330 316 273 244 238 246 246 227 210 207 195 212 207 186 185 236 242 225 193 204 198 172
306 309 292 296 301 301 302 266 320 100 122 39 12 8 2 2 0 356 353 351 351 352 349 343 343 339 342 350 1 359 292 253 253 43 113 131 134 135 146 146 125 108 86 39 131 121 130 116 127
10 263 353 285 274 270 265 268 166 175 171 6 3 0 359 354 353 351 348 350 346 345 350 345 341 342 346 351 6 43 77 94 79 89 94 105 114 111 114 119 113 111 103 73 13 57 80 92 100
247 326 271 214 276 275 276 293 293 173 213 330 356 353 346 344 343 345 346 347 343 343 343 344 343 347 344 358 18 49 79 92 96 98 85 84 82 80 88 91 100 112 111 136 113 70 76 86 85
284 258 247 272 269 271 282 274 87 73 68 353 342 332 340 338 339 343 342 342 341 341 340 341 344 352 354 8 32 55 67 63 88 88 81 84 84 76 76 93 99 94 98 101 109 104 90 92 95
276 265 256 254 277 276 280 269 320 237 263 308 306 316 331 329 330 337 337 339 340 340 341 338 338 346 1 26 34 52 71 66 70 78 74 73 79 85 81 84 85 84 79 85 87 91 90 89 83
Height
790 789 788 784 785 771 784 784 773 775 772 768 768 771 773 769 777 791 775 776 779 785 790 792 793 795 799 805 808 810 812 813 814 815 817 818 820 822 823 824 825 825 826 826 827 828 830 830 831
790 788 785 773 780 784 790 777 778 772 767 770 772 771 771 773 762 765 772 777 780 786 791 796 798 797 798 801 805 810 813 813 813 814 815 816 817 819 820 821 823 824 826 827 828 829 830 831 832
789 787 777 771 778 787 791 780 776 769 764 766 769 766 765 767 764 767 771 774 779 784 789 793 796 798 799 798 801 805 807 810 813 815 816 817 817 818 820 822 823 824 825 826 827 828 830 831 832
787 782 776 777 789 791 787 780 773 770 767 765 763 771 763 766 766 769 771 773 776 781 786 790 793 798 799 800 801 802 805 807 809 812 814 816 817 818 819 821 823 824 825 826 826 828 829 830 832
785 777 780 787 795 787 781 777 772 772 766 764 764 767 766 765 768 769 771 775 777 780 783 785 790 794 797 799 801 803 805 807 808 810 812 814 816 816 817 819 820 822 823 825 826 827 828 829 830
780 777 787 791 794 787 781 777 776 773 767 763 769 764 760 765 767 769 772 775 778 781 783 784 785 789 794 799 801 802 805 807 810 811 812 813 815 817 818 818 820 821 822 823 824 826 827 828 829
787 785 793 793 795 791 788 776 777 775 770 767 762 768 757 762 766 769 771 775 777 780 783 784 785 787 789 793 797 801 803 805 808 810 812 814 815 816 817 820 821 821 821 822 823 824 826 827 828
786 787 795 794 795 792 782 778 774 773 769 763 760 763 762 761 766 769 770 771 775 778 780 782 785 787 788 789 792 795 799 802 805 806 808 811 813 814 816 817 817 818 820 822 822 823 824 825 826
786 791 794 794 793 789 779 784 769 768 769 762 761 759 760 765 766 767 768 769 770 773 776 778 780 783 787 789 789 791 794 797 800 803 806 808 810 812 814 814 816 818 818 819 820 822 823 823 824
787 792 790 787 784 787 781 779 775 774 766 765 763 758 759 762 763 762 761 761 763 764 767 772 776 779 782 786 789 790 792 794 796 798 801 803 807 809 810 812 814 815 817 818 819 820 821 821 823
790 793 787 784 782 782 782 776 769 774 770 761 769 764 760 753 755 756 754 753 755 759 762 765 770 775 778 780 783 786 789 791 793 795 797 800 802 805 807 809 809 811 812 815 816 817 818 819 819
798 786 786 782 783 784 783 772 774 766 765 762 764 761 756 752 749 749 749 750 751 753 758 762 766 769 773 778 779 781 783 785 786 789 792 795 798 800 802 803 805 806 808 810 812 812 813 813 814
795 788 787 783 783 780 778 776 772 767 767 766 762 757 753 751 749 746 746 746 745 748 754 759 762 765 768 770 773 774 776 778 781 783 785 789 791 794 796 798 800 801 803 804 806 808 809 809 810
792 791 786 779 778 780 785 773 773 764 766 763 759 755 751 748 745 744 743 742 742 743 747 753 755 758 762 764 766 768 770 771 774 777 778 780 784 787 790 793 795 796 798 800 801 802 803 804 804
792 796 783 772 778 778 779 775 771 763 763 764 757 752 747 744 742 740 739 738 738 739 742 745 748 751 752 754 757 759 762 764 765 767 771 773 775 779 782 784 787 791 793 795 797 798 799 799 799
794 789 794 772 779 778 782 787 769 763 766 763 758 749 746 742 739 736 739 736 733 733 735 739 742 744 744 743 746 749 751 753 755 758 762 764 768 770 773 777 779 783 786 789 791 792 793 794 794
785 797 794 793 777 779 783 783 766 765 765 761 754 749 744 739 738 742 741 736 733 730 730 732 735 737 736 737 739 739 741 742 743 747 750 753 756 762 765 769 773 776 779 782 784 787 788 789 788
803 803 795 795 782 780 782 775 764 760 760 757 751 746 743 743 744 744 743 740 736 733 730 728 728 728 730 732 733 733 732 731 733 734 737 741 746 751 756 760 764 769 773 775 777 778 782 783 783
806 806 802 790 782 790 784 775 765 758 755 753 752 744 748 750 747 747 745 741 738 735 732 730 726 724 724 724 723 722 718 718 722 725 728 733 736 740 745 749 754 759 765 767 773 774 773 777 777
804 804 800 788 782 788 782 775 762 754 749 748 752 758 759 756 751 748 745 742 739 736 732 728 726 722 718 715 712 712 711 711 712 715 718 722 728 731 733 736 740 740 746 753 757 764 766 769 771
801 805 802 802 788 779 771 769 755 748 746 751 764 766 763 760 755 750 747 745 741 736 732 727 722 717 713 709 705 705 706 706 704 703 706 711 716 721 726 730 732 733 738 741 740 747 755 757 758
810 794 800 799 796 794 777 779 761 749 760 770 771 771 767 763 758 754 750 745 741 738 733 727 720 714 708 703 697 696 696 696 696 700 702 705 710 713 718 722 724 725 729 731 733 733 745 747 749
808 802 801 797 794 787 777 779 754 748 770 777 776 773 770 766 763 758 755 751 746 740 734 728 721 713 704 697 693 688 688 691 693 693 694 696 702 708 709 713 715 717 721 725 723 728 733 738 740
806 802 795 785 787 797 778 785 765 766 783 780 777 773 772 769 765 763 760 755 747 741 733 726 718 710 702 694 687 683 682 685 687 687 688 692 697 700 702 706 712 717 721 724 724 725 725 727 726
807 807 808 799 794 789 772 781 766 767 781 783 780 776 773 769 767 763 759 754 748 741 734 727 721 711 702 693 685 680 680 681 683 683 684 686 690 691 695 701 707 712 715 720 716 712 721 723 722
819 819 823 826 805 793 780 784 758 773 781 782 779 778 776 772 768 765 762 757 751 745 738 731 724 715 707 698 689 682 679 680 679 679 681 683 684 688 690 693 697 701 710 721 697 701 718 718 729
815 823 810 822 809 806 779 761 767 770 776 781 780 778 776 773 768 765 762 758 752 746 740 733 727 719 711 705 697 688 682 682 683 683 687 688 691 694 695 697 699 699 714 708 722 719 725 733 735
823 816 823 812 825 808 772 761 755 770 777 781 780 779 776 772 769 766 762 757 754 748 740 734 731 725 720 713 704 699 692 691 690 691 692 695 698 701 699 702 703 708 707 711 727 737 744 742 743
821 817 817 815 809 805 797 767 766 777 780 781 780 777 773 772 768 766 764 760 754 750 743 734 732 727 724 718 713 707 701 705 700 699 703 703 701 708 710 708 710 711 716 726 731 739 749 745 747
828 824 820 820 814 802 806 780 764 773 771 771 771 769 770 773 771 768 764 761 756 750 744 737 732 729 726 722 719 716 712 713 710 710 712 717 714 712 719 720 717 714 722 728 737 738 741 749 746